Temperature
18 18 18 18 18 18 18 18 17 17 17 17 17 17 16 16 16 16 16 16 15 15 15 15 15 15 15 15 15 15 15 14 14 14 14 13 13 13 13 13 13 13 13
18 18 18 18 18 18 18 17 17 17 17 17 17 16 16 16 16 16 15 15 15 15 15 15 15 15 15 15 15 15 14 14 14 14 14 13 13 13 13 13 13 13 13
18 18 18 18 18 18 18 18 17 17 17 16 16 16 16 16 16 16 15 15 15 15 15 15 15 15 15 14 14 14 14 14 14 14 14 13 13 13 13 13 13 13 13
18 18 18 18 18 18 18 17 17 17 17 16 16 16 16 16 16 15 15 15 15 15 15 15 14 14 14 14 14 14 14 14 14 14 14 14 14 13 12 12 12 12 12
18 18 18 18 18 18 18 17 17 17 17 16 16 16 16 16 16 15 15 15 15 15 15 14 14 14 14 14 14 14 14 14 14 14 14 14 14 14 13 12 12 12 12
18 18 18 18 18 18 18 17 17 17 17 16 16 16 16 16 16 15 15 15 15 15 14 14 14 14 14 14 14 14 14 14 14 14 14 14 14 14 14 13 12 12 12
18 18 18 18 18 18 18 17 17 17 16 16 16 16 16 16 16 15 15 15 15 15 15 14 14 14 14 14 14 14 14 14 14 14 14 14 14 14 14 13 13 12 12
18 18 18 18 18 18 17 17 17 17 16 16 16 16 16 16 16 15 15 15 15 15 14 14 14 14 14 14 14 14 14 14 14 14 14 14 14 14 13 13 13 12 12
18 18 18 18 18 17 17 17 17 17 16 16 16 16 16 16 16 16 15 15 15 15 14 14 14 14 14 14 14 14 14 14 14 14 13 13 13 13 13 13 13 13 12
18 18 18 18 18 17 17 17 17 17 16 16 16 16 16 16 16 16 15 15 15 15 14 14 14 14 14 14 14 14 14 13 13 13 13 13 13 13 13 13 13 13 13
18 18 18 18 18 17 17 17 17 16 16 16 16 16 16 16 15 15 15 15 15 15 14 14 14 14 14 14 14 13 13 13 13 13 13 13 13 13 13 13 13 13 13
18 18 18 18 17 17 17 17 16 16 16 16 16 16 16 15 15 15 15 15 15 15 14 14 14 14 14 14 13 13 13 13 13 13 13 13 13 13 13 13 13 13 12
17 17 17 17 17 17 17 17 16 16 16 16 16 16 15 15 15 15 15 15 15 14 14 14 14 14 14 14 13 13 13 13 13 13 13 13 13 13 13 12 12 12 12
17 17 17 17 17 17 16 16 16 16 16 15 15 15 15 15 15 15 15 15 14 14 14 14 14 14 13 13 13 13 13 13 13 13 13 13 12 12 12 12 12 12 12
16 16 17 17 16 16 16 16 16 16 15 15 15 15 15 15 15 15 15 14 14 14 14 14 14 13 13 13 13 13 13 13 13 13 12 12 12 12 12 12 12 12 12
16 16 16 16 16 16 16 16 16 15 15 15 15 15 14 14 14 14 14 14 14 14 13 13 13 13 13 13 13 13 13 13 13 12 12 12 12 12 12 12 12 12 11
16 16 16 16 16 16 16 15 15 15 15 15 15 14 14 14 14 14 14 14 14 14 13 13 13 13 13 13 13 12 12 12 12 12 12 12 12 12 12 12 11 11 11
16 16 16 16 16 15 15 15 15 15 15 14 14 14 14 13 13 14 14 13 13 13 13 13 13 13 13 12 12 12 12 12 12 12 12 12 12 12 12 11 11 11 11
16 16 16 16 15 15 15 15 15 14 14 14 14 14 13 13 13 13 13 13 13 13 13 13 13 12 12 12 12 12 12 12 12 12 12 11 11 11 11 11 11 11 11
16 16 15 15 15 15 15 15 14 14 14 14 14 14 13 13 13 13 13 13 13 13 13 12 12 12 12 12 12 12 12 12 11 11 11 11 11 11 11 11 11 11 11
15 15 15 15 15 14 14 14 14 14 14 14 13 13 13 13 13 13 12 12 12 12 12 12 12 12 12 12 12 12 11 11 11 11 11 11 11 11 10 10 10 10 10
15 15 14 14 14 14 14 14 14 14 13 13 13 13 13 13 13 12 12 12 12 12 12 12 12 12 12 11 11 11 11 11 11 11 11 11 10 10 10 10 10 10 10
14 14 14 14 13 13 13 13 13 13 13 13 13 12 12 12 12 12 12 11 11 11 11 11 11 11 11 11 11 11 11 11 11 11 10 10 10 10 10 10 9 9 9
14 14 13 13 13 13 13 13 13 13 13 13 12 12 12 12 12 12 11 11 11 11 11 11 11 11 11 11 11 11 10 10 10 10 10 10 10 9 9 9 9 9 9
13 13 13 13 13 13 13 13 12 12 12 12 12 12 12 11 11 11 11 11 11 11 11 11 11 11 11 11 11 10 10 10 10 10 9 9 9 9 9 9 9 9 8
13 12 12 12 12 12 12 12 12 12 12 12 12 12 11 11 11 11 11 11 11 11 11 11 11 11 11 10 10 10 10 10 9 9 9 9 9 9 9 9 8 8 8
Wind_Speed
5 4 5 5 5 6 6 6 5 4 4 3 3 3 2 2 2 3 5 6 7 6 6 5 4 5 4 4 4 4 4 3 3 5 4 5 5 5 4 5 5 6 7
5 5 5 5 6 6 6 6 6 5 4 3 3 3 3 2 1 2 4 5 6 5 5 5 4 4 4 4 4 4 3 2 2 3 3 2 3 4 4 3 3 4 6
8 7 7 7 6 6 7 7 6 5 5 4 3 4 3 3 2 2 1 2 4 5 5 5 4 4 4 4 3 3 4 2 0 1 3 3 2 0 3 3 3 3 3
8 7 7 7 8 7 7 7 6 6 5 6 5 5 4 3 3 2 1 1 3 4 5 5 4 3 3 3 3 3 2 3 1 0 1 2 4 3 1 2 3 3 3
9 9 8 8 8 7 7 6 6 5 5 6 7 6 4 3 2 2 2 2 2 3 4 5 4 4 3 3 2 2 2 2 2 1 1 2 2 3 3 1 1 3 3
9 9 8 7 6 6 6 6 6 5 5 6 6 6 6 5 4 4 3 2 1 1 2 4 4 3 2 2 3 2 3 2 2 1 1 2 2 2 3 3 2 0 2
9 8 7 7 7 7 6 7 7 6 5 6 6 6 6 6 7 6 5 4 2 1 2 3 3 3 3 3 3 2 2 2 3 2 1 1 2 3 3 4 3 1 1
9 9 9 8 7 7 7 7 7 6 6 6 6 5 6 5 4 6 6 5 4 4 4 3 3 3 3 3 3 2 2 2 2 2 2 2 1 2 4 4 4 3 1
8 8 8 7 7 6 6 7 8 6 6 6 5 5 5 5 5 5 5 5 4 4 5 4 4 3 3 3 3 2 2 2 2 2 2 2 1 2 2 3 4 5 3
7 6 7 7 6 6 5 5 6 7 6 6 5 4 4 5 5 5 7 6 5 5 5 4 4 3 3 3 3 3 2 3 2 2 3 2 2 2 2 3 2 3 4
7 6 6 6 6 5 4 4 4 4 4 5 5 4 3 4 4 5 6 6 6 6 6 5 4 4 3 3 3 3 3 3 2 2 3 2 2 2 2 2 2 2 3
6 6 5 5 5 4 4 4 4 4 4 4 5 5 4 4 4 4 5 6 6 5 5 5 5 4 3 3 4 3 3 3 3 3 3 3 2 3 2 2 2 2 3
4 4 4 4 5 5 4 4 4 4 3 3 3 4 4 4 4 4 4 5 5 5 4 5 5 5 4 4 4 4 4 4 4 4 4 4 4 3 2 2 3 2 3
5 4 3 3 3 4 4 4 4 4 4 3 3 3 4 5 4 4 4 4 5 5 5 5 5 5 4 4 4 4 3 3 3 3 4 4 5 5 4 3 4 4 4
5 5 4 3 3 3 3 3 4 3 4 4 4 4 4 4 4 3 3 4 4 5 5 4 4 4 4 4 4 4 4 4 3 2 3 4 5 6 5 4 5 5 4
6 5 5 4 3 3 3 3 3 4 4 4 4 3 3 3 4 4 4 4 4 4 5 5 5 4 3 5 7 5 4 4 4 3 2 2 3 5 6 7 8 8 6
6 6 6 5 5 5 4 3 3 3 4 4 3 3 4 3 4 4 4 4 4 4 5 5 5 4 4 6 7 7 4 4 4 4 3 2 2 3 3 4 5 6 7
6 6 6 5 4 4 4 3 2 3 4 3 3 3 4 4 3 3 4 4 3 3 5 5 5 4 4 6 7 7 4 3 3 4 4 4 3 4 4 4 3 2 3
5 5 5 5 4 4 4 3 2 3 3 3 4 4 4 4 3 3 4 3 3 3 4 4 5 5 5 6 7 7 4 3 3 3 4 4 4 6 7 5 4 3 2
3 3 3 3 4 4 4 4 4 3 4 5 5 4 5 5 4 4 3 2 3 3 3 4 5 6 5 6 7 7 4 3 3 2 3 6 6 7 8 6 5 4 4
3 3 3 3 3 4 4 4 4 5 5 4 4 4 4 5 5 4 2 2 3 3 3 3 3 4 5 6 8 8 4 5 4 3 3 4 7 7 8 7 5 6 5
2 3 3 2 2 3 4 4 5 5 4 3 4 4 4 4 3 3 2 2 3 3 3 3 2 2 3 5 6 8 7 6 5 4 4 4 6 7 7 6 6 5 4
3 3 4 3 2 3 5 5 5 4 4 3 4 4 4 3 3 4 3 2 3 3 3 3 3 3 2 3 6 7 8 7 5 4 5 5 5 5 4 5 6 5 3
3 3 3 3 3 3 4 4 4 3 4 4 3 3 4 3 3 3 3 3 4 4 3 3 4 3 3 3 3 3 3 5 4 3 4 4 4 3 3 2 3 3 4
3 3 4 4 5 4 3 3 3 4 3 3 3 3 4 4 4 3 3 4 5 6 6 5 5 5 5 7 7 5 4 4 4 3 1 1 1 2 2 2 2 2 3
3 3 4 4 4 4 4 3 4 4 4 3 2 2 3 3 3 3 2 2 3 4 5 5 5 5 6 6 8 8 7 7 7 4 3 3 4 5 5 4 4 3 4
Wind_Direction
195 173 156 145 138 137 139 138 127 126 117 113 111 106 101 84 68 77 88 95 95 97 103 105 101 102 103 109 108 102 91 87 100 91 68 40 39 47 48 57 64 63 66
178 176 161 153 153 154 152 150 149 145 138 138 139 139 136 125 112 70 78 96 99 98 111 116 115 110 103 101 104 106 101 109 114 116 109 73 26 22 33 37 56 57 65
182 181 173 169 163 163 165 164 166 158 152 138 116 96 75 65 59 64 64 77 106 102 108 120 119 123 120 128 135 127 126 144 203 133 137 142 170 61 7 23 39 45 52
185 182 178 176 174 176 170 166 166 163 157 143 142 144 144 154 188 180 166 121 106 109 108 117 121 128 132 141 158 143 142 145 181 300 77 140 146 143 109 4 10 30 43
186 185 185 183 180 174 168 167 165 164 162 157 158 154 154 169 168 151 142 129 104 110 115 119 118 128 142 151 142 131 132 142 159 163 129 88 82 103 135 152 347 14 10
187 187 186 176 173 169 163 159 163 170 166 163 166 164 164 160 155 160 158 157 141 112 124 122 120 131 140 148 148 146 136 136 132 132 140 151 146 148 138 150 163 109 338
177 178 176 173 173 172 172 166 168 176 176 172 177 182 177 173 177 179 176 172 169 176 189 140 136 140 156 155 143 135 130 139 133 138 135 143 159 153 142 139 145 142 314
176 178 181 179 178 177 176 174 177 182 180 181 187 189 182 179 188 188 179 181 183 188 184 164 158 160 161 151 136 125 133 129 131 128 126 115 131 143 150 150 143 128 43
179 180 180 177 175 175 180 183 184 189 188 187 184 185 187 187 191 189 180 180 180 177 169 167 162 159 154 150 137 127 135 129 128 125 119 120 119 122 144 146 151 148 156
170 166 170 175 177 177 182 185 186 193 191 183 186 188 188 194 189 177 181 182 180 169 161 167 160 153 146 142 132 135 145 134 139 130 116 113 125 114 117 145 146 141 148
163 166 171 176 171 168 172 179 186 187 193 188 182 176 177 182 183 180 184 180 175 169 170 177 169 164 160 149 140 151 154 151 147 137 137 143 132 119 109 115 128 130 133
163 164 163 159 158 165 171 177 185 187 202 196 182 179 170 162 171 182 183 176 172 173 175 171 169 172 166 161 157 169 169 168 167 166 153 160 141 123 119 122 124 136 141
152 144 144 157 173 179 180 187 188 189 196 181 176 173 163 161 170 178 179 175 170 171 172 167 172 174 173 169 171 168 173 177 178 175 173 176 155 151 149 141 134 130 121
154 147 150 168 184 190 189 189 201 196 184 172 172 184 183 178 176 174 173 174 171 170 173 176 179 177 174 171 171 163 161 167 176 179 178 176 171 172 166 157 150 136 119
160 168 176 181 185 193 199 200 205 198 180 172 179 195 201 180 167 165 170 171 173 177 171 165 169 173 171 176 169 165 163 162 158 159 172 180 180 175 170 167 162 148 140
179 183 179 175 189 194 200 203 206 200 177 177 189 187 172 171 171 168 164 158 171 177 166 168 171 174 191 185 177 169 164 164 164 169 178 186 180 178 176 172 171 166 164
186 188 189 191 197 197 192 195 203 187 174 181 188 175 174 174 186 180 161 165 175 173 172 179 175 181 189 176 173 169 165 170 178 178 181 195 189 167 165 167 171 183 190
186 193 196 198 204 200 195 187 172 168 174 177 180 177 178 182 177 174 176 179 177 178 185 183 185 185 200 187 176 166 153 168 187 189 189 185 190 188 169 159 158 181 204
190 198 199 197 192 193 189 170 172 176 181 194 192 186 179 179 177 181 189 185 176 181 188 183 182 185 205 197 182 165 155 174 201 203 195 188 192 199 179 161 167 187 236
183 185 178 167 178 196 178 166 183 188 206 205 200 191 183 180 186 191 191 182 179 186 182 187 188 184 194 195 186 171 165 181 203 211 212 207 202 202 185 174 172 189 219
182 170 161 169 195 191 171 177 191 209 217 204 189 186 186 186 186 180 176 177 171 163 173 192 200 194 199 199 190 181 180 189 196 210 221 224 209 201 195 187 190 207 195
192 174 165 186 202 185 173 186 210 218 202 185 182 192 197 196 183 169 183 183 169 172 189 199 217 221 218 212 203 195 194 188 187 207 217 215 202 203 201 197 204 197 169
211 194 181 195 215 199 181 192 220 212 188 177 193 200 199 193 181 179 189 196 180 183 201 203 216 230 229 229 217 207 202 195 195 206 202 202 201 197 197 200 196 184 168
222 208 188 198 228 225 206 205 209 187 172 182 200 199 190 193 192 188 189 195 198 198 204 206 218 221 221 220 214 206 197 195 201 203 203 199 199 189 190 196 193 181 184
231 208 203 211 228 224 221 218 197 175 178 187 200 203 194 190 195 197 201 206 216 207 202 212 210 208 219 223 205 188 192 194 196 166 145 158 176 197 207 205 204 192 183
231 215 220 226 232 225 224 219 198 182 182 194 207 207 200 195 194 194 226 272 250 235 213 212 215 228 229 212 199 198 199 194 174 153 183 205 207 210 209 208 213 212 211
Height
1539 1540 1542 1543 1544 1545 1546 1547 1548 1549 1549 1550 1551 1552 1552 1553 1553 1553 1554 1554 1553 1553 1554 1554 1554 1554 1554 1555 1555 1555 1556 1556 1556 1556 1557 1557 1557 1557 1557 1556 1556 1555 1555
1537 1539 1540 1542 1543 1544 1545 1546 1547 1548 1549 1550 1550 1551 1552 1552 1553 1553 1554 1554 1554 1554 1554 1554 1554 1554 1555 1555 1555 1555 1556 1556 1557 1557 1556 1558 1559 1558 1558 1557 1557 1556 1556
1535 1537 1539 1540 1542 1543 1544 1545 1546 1547 1548 1549 1550 1551 1551 1552 1552 1553 1553 1553 1553 1554 1554 1554 1554 1554 1555 1555 1555 1555 1556 1556 1557 1557 1557 1557 1557 1558 1559 1558 1558 1557 1556
1533 1535 1537 1538 1540 1541 1543 1544 1545 1546 1547 1548 1549 1549 1550 1551 1551 1552 1553 1553 1553 1553 1554 1554 1554 1554 1554 1555 1555 1555 1556 1556 1556 1556 1556 1557 1557 1557 1558 1559 1558 1558 1557
1531 1533 1535 1536 1538 1540 1541 1543 1544 1545 1546 1547 1548 1548 1549 1550 1551 1551 1552 1552 1553 1553 1553 1553 1553 1554 1554 1554 1554 1555 1555 1555 1555 1555 1555 1556 1556 1556 1557 1557 1558 1558 1558
1528 1530 1533 1535 1536 1538 1540 1541 1542 1544 1544 1545 1546 1547 1548 1549 1549 1550 1551 1551 1552 1552 1553 1553 1553 1553 1553 1554 1554 1554 1554 1554 1554 1554 1555 1555 1555 1555 1556 1556 1557 1557 1558
1526 1528 1530 1532 1534 1536 1538 1539 1541 1542 1543 1544 1545 1546 1547 1547 1548 1549 1550 1550 1551 1551 1552 1552 1552 1552 1552 1553 1553 1553 1553 1553 1553 1553 1554 1554 1554 1555 1555 1555 1556 1556 1557
1524 1526 1528 1530 1532 1534 1536 1537 1539 1540 1541 1542 1544 1544 1545 1546 1547 1548 1549 1549 1549 1550 1551 1551 1551 1551 1552 1552 1552 1552 1552 1552 1552 1552 1553 1553 1553 1554 1554 1555 1555 1555 1556
1522 1524 1527 1529 1531 1532 1534 1535 1537 1538 1539 1541 1542 1543 1543 1544 1545 1546 1547 1548 1548 1549 1550 1550 1550 1550 1550 1551 1551 1551 1551 1551 1551 1552 1552 1552 1552 1553 1553 1554 1555 1556 1555
1521 1523 1525 1527 1529 1531 1533 1534 1535 1536 1537 1539 1540 1541 1542 1542 1543 1544 1545 1546 1547 1547 1548 1549 1549 1549 1549 1549 1550 1550 1550 1550 1550 1551 1551 1551 1552 1552 1553 1553 1554 1554 1555
1520 1522 1524 1526 1528 1530 1531 1532 1534 1535 1536 1537 1538 1539 1540 1541 1541 1542 1543 1544 1545 1546 1546 1547 1547 1547 1548 1548 1548 1549 1549 1549 1549 1550 1550 1550 1551 1551 1552 1552 1553 1553 1553
1519 1521 1523 1524 1526 1528 1529 1530 1532 1533 1534 1535 1536 1537 1538 1538 1539 1540 1540 1542 1543 1544 1545 1545 1546 1546 1546 1547 1547 1547 1548 1548 1548 1548 1549 1549 1550 1550 1551 1551 1551 1552 1552
1519 1520 1522 1523 1525 1526 1527 1528 1530 1531 1532 1533 1533 1534 1535 1536 1536 1537 1539 1540 1541 1542 1543 1543 1544 1544 1545 1545 1545 1546 1546 1547 1547 1547 1548 1548 1548 1549 1549 1550 1550 1550 1551
1518 1519 1520 1522 1523 1524 1525 1526 1528 1528 1529 1530 1531 1531 1532 1533 1534 1535 1536 1537 1538 1539 1540 1541 1542 1542 1543 1543 1544 1544 1545 1545 1545 1546 1546 1547 1547 1547 1548 1548 1548 1549 1549
1517 1518 1519 1520 1521 1522 1523 1524 1525 1526 1527 1528 1528 1529 1530 1531 1531 1533 1534 1534 1536 1536 1538 1538 1539 1540 1540 1541 1542 1542 1543 1543 1544 1544 1544 1545 1545 1546 1546 1546 1547 1547 1548
1516 1517 1517 1518 1519 1520 1521 1521 1522 1523 1524 1525 1525 1526 1527 1528 1528 1530 1530 1531 1532 1534 1535 1535 1536 1537 1538 1539 1539 1540 1541 1541 1541 1542 1542 1543 1544 1544 1544 1544 1545 1546 1546
1514 1514 1515 1516 1517 1518 1518 1519 1520 1521 1521 1522 1522 1523 1524 1524 1525 1526 1527 1528 1529 1530 1531 1532 1533 1534 1535 1536 1537 1537 1538 1538 1539 1540 1540 1540 1541 1541 1542 1542 1543 1543 1544
1511 1512 1513 1514 1515 1516 1516 1517 1518 1518 1518 1519 1519 1520 1521 1521 1522 1523 1524 1524 1526 1527 1528 1529 1530 1531 1532 1533 1533 1534 1535 1535 1536 1537 1537 1538 1538 1539 1539 1539 1540 1540 1541
1509 1510 1511 1511 1512 1513 1513 1514 1514 1515 1515 1516 1516 1517 1517 1518 1519 1519 1520 1521 1522 1523 1524 1526 1527 1527 1528 1529 1530 1531 1531 1532 1533 1533 1534 1535 1535 1536 1536 1537 1537 1537 1538
1507 1508 1508 1508 1509 1510 1510 1511 1511 1512 1512 1513 1513 1514 1514 1515 1515 1516 1517 1518 1519 1520 1521 1523 1524 1524 1525 1526 1527 1528 1528 1529 1529 1530 1531 1531 1532 1533 1533 1533 1533 1534 1535
1505 1505 1505 1505 1506 1507 1507 1507 1508 1508 1509 1510 1510 1511 1512 1512 1513 1513 1514 1515 1516 1517 1518 1520 1521 1521 1522 1523 1524 1524 1525 1525 1526 1526 1527 1528 1528 1529 1529 1530 1530 1531 1532
1502 1502 1502 1503 1504 1504 1504 1504 1505 1505 1506 1506 1507 1508 1508 1509 1510 1510 1511 1512 1512 1513 1515 1516 1517 1518 1519 1519 1520 1521 1521 1522 1522 1522 1523 1524 1524 1525 1526 1526 1527 1527 1528
1499 1499 1499 1499 1500 1501 1501 1501 1501 1502 1502 1503 1503 1504 1505 1506 1506 1507 1507 1508 1509 1510 1511 1512 1513 1513 1515 1515 1516 1517 1517 1518 1519 1519 1519 1520 1520 1521 1521 1522 1522 1523 1523
1496 1496 1496 1496 1496 1497 1497 1497 1498 1498 1499 1499 1500 1501 1502 1502 1503 1504 1505 1505 1505 1506 1507 1508 1508 1509 1510 1511 1512 1513 1513 1514 1515 1515 1515 1516 1516 1517 1517 1518 1518 1518 1519
1493 1493 1493 1492 1492 1493 1493 1494 1494 1495 1495 1496 1496 1497 1498 1499 1499 1500 1501 1501 1502 1502 1503 1503 1504 1505 1506 1507 1508 1509 1509 1510 1511 1511 1511 1511 1511 1512 1512 1513 1513 1514 1514
1489 1489 1489 1488 1488 1489 1489 1489 1490 1491 1491 1492 1492 1493 1494 1495 1496 1496 1497 1497 1498 1499 1499 1500 1501 1501 1502 1503 1504 1505 1505 1506 1506 1507 1506 1506 1507 1507 1508 1508 1509 1509 1510